Year,Month,Day,Hour,Minute,Value (Times are PST for windspeed in km/hr)
2010,05,20,00,00,3.20
2010,05,20,00,01,3.20
2010,05,20,00,02,1.60
2010,05,20,00,03,0.00
2010,05,20,00,04,0.00
2010,05,20,00,05,3.20
2010,05,20,00,06,3.20
2010,05,20,00,07,3.20
2010,05,20,00,08,3.20
2010,05,20,00,09,0.00
2010,05,20,00,10,0.00
2010,05,20,00,11,0.00
2010,05,20,00,12,4.80
2010,05,20,00,13,1.60
2010,05,20,00,14,0.00
2010,05,20,00,15,1.60
2010,05,20,00,16,3.20
2010,05,20,00,17,3.20
2010,05,20,00,18,1.60
2010,05,20,00,19,3.20
2010,05,20,00,20,6.40
2010,05,20,00,21,4.80
2010,05,20,00,22,1.60
2010,05,20,00,23,6.40
2010,05,20,00,24,1.60
2010,05,20,00,25,3.20
2010,05,20,00,26,3.20
2010,05,20,00,27,3.20
2010,05,20,00,28,6.40
2010,05,20,00,29,9.70
2010,05,20,00,30,8.00
2010,05,20,00,31,3.20
2010,05,20,00,32,4.80
2010,05,20,00,33,3.20
2010,05,20,00,34,6.40
2010,05,20,00,35,6.40
2010,05,20,00,36,3.20
2010,05,20,00,37,1.60
2010,05,20,00,38,0.00
2010,05,20,00,39,3.20
2010,05,20,00,40,1.60
2010,05,20,00,41,0.00
2010,05,20,00,42,0.00
2010,05,20,00,43,0.00
2010,05,20,00,44,0.00
2010,05,20,00,45,0.00
2010,05,20,00,46,0.00
2010,05,20,00,47,0.00
2010,05,20,00,48,0.00
2010,05,20,00,49,1.60
2010,05,20,00,50,0.00
2010,05,20,00,51,0.00
2010,05,20,00,52,0.00
2010,05,20,00,53,1.60
2010,05,20,00,54,1.60
2010,05,20,00,55,3.20
2010,05,20,00,56,6.40
2010,05,20,00,57,6.40
2010,05,20,00,58,6.40
2010,05,20,00,59,6.40
2010,05,20,01,00,3.20
2010,05,20,01,01,9.70
2010,05,20,01,02,8.00
2010,05,20,01,03,8.00
2010,05,20,01,04,8.00
2010,05,20,01,05,3.20
2010,05,20,01,06,14.50
2010,05,20,01,07,9.70
2010,05,20,01,08,9.70
2010,05,20,01,09,8.00
2010,05,20,01,10,6.40
2010,05,20,01,11,3.20
2010,05,20,01,12,8.00
2010,05,20,01,13,8.00
2010,05,20,01,14,9.70
2010,05,20,01,15,6.40
2010,05,20,01,16,9.70
2010,05,20,01,17,6.40
2010,05,20,01,18,20.90
2010,05,20,01,19,11.30
2010,05,20,01,20,8.00
2010,05,20,01,21,8.00
2010,05,20,01,22,8.00
2010,05,20,01,23,11.30
2010,05,20,01,24,4.80
2010,05,20,01,25,3.20
2010,05,20,01,26,11.30
2010,05,20,01,27,11.30
2010,05,20,01,28,8.00
2010,05,20,01,29,6.40
2010,05,20,01,30,8.00
2010,05,20,01,31,4.80
2010,05,20,01,32,6.40
2010,05,20,01,33,6.40
2010,05,20,01,34,9.70
2010,05,20,01,35,11.30
2010,05,20,01,36,11.30
2010,05,20,01,37,9.70
2010,05,20,01,38,12.90
2010,05,20,01,39,12.90
2010,05,20,01,40,14.50
2010,05,20,01,41,22.50
2010,05,20,01,42,12.90
2010,05,20,01,43,16.10
2010,05,20,01,44,14.50
2010,05,20,01,45,11.30
2010,05,20,01,46,24.10
2010,05,20,01,47,16.10
2010,05,20,01,48,16.10
2010,05,20,01,49,14.50
2010,05,20,01,50,11.30
2010,05,20,01,51,8.00
2010,05,20,01,52,19.30
2010,05,20,01,53,17.70
2010,05,20,01,54,12.90
2010,05,20,01,55,12.90
2010,05,20,01,56,11.30
2010,05,20,01,57,14.50
2010,05,20,01,58,19.30
2010,05,20,01,59,17.70
2010,05,20,02,00,16.10
2010,05,20,02,01,25.70
2010,05,20,02,02,20.90
2010,05,20,02,03,33.80
2010,05,20,02,04,30.60
2010,05,20,02,05,25.70
2010,05,20,02,06,12.90
2010,05,20,02,07,16.10
2010,05,20,02,08,29.00
2010,05,20,02,09,19.30
2010,05,20,02,10,19.30
2010,05,20,02,11,17.70
2010,05,20,02,12,16.10
2010,05,20,02,13,17.70
2010,05,20,02,14,20.90
2010,05,20,02,15,37.00
2010,05,20,02,16,40.20
2010,05,20,02,17,19.30
2010,05,20,02,18,20.90
2010,05,20,02,19,22.50
2010,05,20,02,20,32.20
2010,05,20,02,21,11.30
2010,05,20,02,22,38.60
2010,05,20,02,23,17.70
2010,05,20,02,24,35.40
2010,05,20,02,25,33.80
2010,05,20,02,26,33.80
2010,05,20,02,27,17.70
2010,05,20,02,28,20.90
2010,05,20,02,29,33.80
2010,05,20,02,30,30.60
2010,05,20,02,31,19.30
2010,05,20,02,32,9.70
2010,05,20,02,33,24.10
2010,05,20,02,34,22.50
2010,05,20,02,35,29.00
2010,05,20,02,36,16.10
2010,05,20,02,37,22.50
2010,05,20,02,38,29.00
2010,05,20,02,39,29.00
2010,05,20,02,40,40.20
2010,05,20,02,41,45.10
2010,05,20,02,42,24.10
2010,05,20,02,43,29.00
2010,05,20,02,44,24.10
2010,05,20,02,45,32.20
2010,05,20,02,46,17.70
2010,05,20,02,47,22.50
2010,05,20,02,48,16.10
2010,05,20,02,49,24.10
2010,05,20,02,50,29.00
2010,05,20,02,51,32.20
2010,05,20,02,52,25.70
2010,05,20,02,53,19.30
2010,05,20,02,54,25.70
2010,05,20,02,55,25.70
2010,05,20,02,56,22.50
2010,05,20,02,57,22.50
2010,05,20,02,58,14.50
2010,05,20,02,59,25.70
2010,05,20,03,00,19.30
2010,05,20,03,01,22.50
2010,05,20,03,02,14.50
2010,05,20,03,03,17.70
2010,05,20,03,04,25.70
2010,05,20,03,05,22.50
2010,05,20,03,06,17.70
2010,05,20,03,07,45.10
2010,05,20,03,08,25.70
2010,05,20,03,09,30.60
2010,05,20,03,10,17.70
2010,05,20,03,11,22.50
2010,05,20,03,12,30.60
2010,05,20,03,13,32.20
2010,05,20,03,14,24.10
2010,05,20,03,15,32.20
2010,05,20,03,16,37.00
2010,05,20,03,17,24.10
2010,05,20,03,18,37.00
2010,05,20,03,19,32.20
2010,05,20,03,20,17.70
2010,05,20,03,21,20.90
2010,05,20,03,22,37.00
2010,05,20,03,23,37.00
2010,05,20,03,24,35.40
2010,05,20,03,25,30.60
2010,05,20,03,26,25.70
2010,05,20,03,27,32.20
2010,05,20,03,28,30.60
2010,05,20,03,29,14.50
2010,05,20,03,30,22.50
2010,05,20,03,31,24.10
2010,05,20,03,32,16.10
2010,05,20,03,33,19.30
2010,05,20,03,34,30.60
2010,05,20,03,35,33.80
2010,05,20,03,36,20.90
2010,05,20,03,37,25.70
2010,05,20,03,38,32.20
2010,05,20,03,39,30.60
2010,05,20,03,40,33.80
2010,05,20,03,41,22.50
2010,05,20,03,42,30.60
2010,05,20,03,43,20.90
2010,05,20,03,44,38.60
2010,05,20,03,45,38.60
2010,05,20,03,46,38.60
2010,05,20,03,47,37.00
2010,05,20,03,48,40.20
2010,05,20,03,49,29.00
2010,05,20,03,50,17.70
2010,05,20,03,51,19.30
2010,05,20,03,52,48.30
2010,05,20,03,53,38.60
2010,05,20,03,54,37.00
2010,05,20,03,55,22.50
2010,05,20,03,56,19.30
2010,05,20,03,57,20.90
2010,05,20,03,58,25.70
2010,05,20,03,59,32.20
2010,05,20,04,00,46.70
2010,05,20,04,01,17.70
2010,05,20,04,02,46.70
2010,05,20,04,03,30.60
2010,05,20,04,04,33.80
2010,05,20,04,05,25.70
2010,05,20,04,06,24.10
2010,05,20,04,07,35.40
2010,05,20,04,08,33.80
2010,05,20,04,09,24.10
2010,05,20,04,10,29.00
2010,05,20,04,11,9.70
2010,05,20,04,12,16.10
2010,05,20,04,13,38.60
2010,05,20,04,14,12.90
2010,05,20,04,15,14.50
2010,05,20,04,16,19.30
2010,05,20,04,17,16.10
2010,05,20,04,18,29.00
2010,05,20,04,19,19.30
2010,05,20,04,20,25.70
2010,05,20,04,21,17.70
2010,05,20,04,22,30.60
2010,05,20,04,23,19.30
2010,05,20,04,24,29.00
2010,05,20,04,25,22.50
2010,05,20,04,26,37.00
2010,05,20,04,27,46.70
2010,05,20,04,28,24.10
2010,05,20,04,29,33.80
2010,05,20,04,30,17.70
2010,05,20,04,31,32.20
2010,05,20,04,32,22.50
2010,05,20,04,33,24.10
2010,05,20,04,34,38.60
2010,05,20,04,35,41.80
2010,05,20,04,36,33.80
2010,05,20,04,37,40.20
2010,05,20,04,38,32.20
2010,05,20,04,39,45.10
2010,05,20,04,40,20.90
2010,05,20,04,41,17.70
2010,05,20,04,42,17.70
2010,05,20,04,43,19.30
2010,05,20,04,44,41.80
2010,05,20,04,45,43.50
2010,05,20,04,46,24.10
2010,05,20,04,47,32.20
2010,05,20,04,48,37.00
2010,05,20,04,49,33.80
2010,05,20,04,50,25.70
2010,05,20,04,51,25.70
2010,05,20,04,52,19.30
2010,05,20,04,53,33.80
2010,05,20,04,54,43.50
2010,05,20,04,55,30.60
2010,05,20,04,56,19.30
2010,05,20,04,57,22.50
2010,05,20,04,58,22.50
2010,05,20,04,59,30.60
2010,05,20,05,00,35.40
2010,05,20,05,01,43.50
2010,05,20,05,02,25.70
2010,05,20,05,03,16.10
2010,05,20,05,04,14.50
2010,05,20,05,05,24.10
2010,05,20,05,06,35.40
2010,05,20,05,07,24.10
2010,05,20,05,08,30.60
2010,05,20,05,09,37.00
2010,05,20,05,10,29.00
2010,05,20,05,11,43.50
2010,05,20,05,12,16.10
2010,05,20,05,13,32.20
2010,05,20,05,14,33.80
2010,05,20,05,15,37.00
2010,05,20,05,16,22.50
2010,05,20,05,17,46.70
2010,05,20,05,18,20.90
2010,05,20,05,19,20.90
2010,05,20,05,20,53.10
2010,05,20,05,21,30.60
2010,05,20,05,22,33.80
2010,05,20,05,23,22.50
2010,05,20,05,24,29.00
2010,05,20,05,25,30.60
2010,05,20,05,26,40.20
2010,05,20,05,27,19.30
2010,05,20,05,28,29.00
2010,05,20,05,29,30.60
2010,05,20,05,30,19.30
2010,05,20,05,31,33.80
2010,05,20,05,32,41.80
2010,05,20,05,33,22.50
2010,05,20,05,34,17.70
2010,05,20,05,35,25.70
2010,05,20,05,36,24.10
2010,05,20,05,37,32.20
2010,05,20,05,38,11.30
2010,05,20,05,39,16.10
2010,05,20,05,40,29.00
2010,05,20,05,41,32.20
2010,05,20,05,42,25.70
2010,05,20,05,43,30.60
2010,05,20,05,44,16.10
2010,05,20,05,45,20.90
2010,05,20,05,46,33.80
2010,05,20,05,47,24.10
2010,05,20,05,48,17.70
2010,05,20,05,49,33.80
2010,05,20,05,50,37.00
2010,05,20,05,51,25.70
2010,05,20,05,52,29.00
2010,05,20,05,53,17.70
2010,05,20,05,54,29.00
2010,05,20,05,55,30.60
2010,05,20,05,56,43.50
2010,05,20,05,57,32.20
2010,05,20,05,58,24.10
2010,05,20,05,59,29.00
2010,05,20,06,00,30.60
2010,05,20,06,01,20.90
2010,05,20,06,02,12.90
2010,05,20,06,03,33.80
2010,05,20,06,04,25.70
2010,05,20,06,05,45.10
2010,05,20,06,06,22.50
2010,05,20,06,07,29.00
2010,05,20,06,08,20.90
2010,05,20,06,09,20.90
2010,05,20,06,10,29.00
2010,05,20,06,11,29.00
2010,05,20,06,12,46.70
2010,05,20,06,13,29.00
2010,05,20,06,14,29.00
2010,05,20,06,15,25.70
2010,05,20,06,16,24.10
2010,05,20,06,17,25.70
2010,05,20,06,18,25.70
2010,05,20,06,19,22.50
2010,05,20,06,20,32.20
2010,05,20,06,21,16.10
2010,05,20,06,22,16.10
2010,05,20,06,23,35.40
2010,05,20,06,24,30.60
2010,05,20,06,25,24.10
2010,05,20,06,26,30.60
2010,05,20,06,27,32.20
2010,05,20,06,28,19.30
2010,05,20,06,29,19.30
2010,05,20,06,30,32.20
2010,05,20,06,31,33.80
2010,05,20,06,32,11.30
2010,05,20,06,33,22.50
2010,05,20,06,34,25.70
2010,05,20,06,35,45.10
2010,05,20,06,36,24.10
2010,05,20,06,37,30.60
2010,05,20,06,38,24.10
2010,05,20,06,39,22.50
2010,05,20,06,40,33.80
2010,05,20,06,41,22.50
2010,05,20,06,42,43.50
2010,05,20,06,43,25.70
2010,05,20,06,44,14.50
2010,05,20,06,45,22.50
2010,05,20,06,46,14.50
2010,05,20,06,47,30.60
2010,05,20,06,48,25.70
2010,05,20,06,49,17.70
2010,05,20,06,50,14.50
2010,05,20,06,51,30.60
2010,05,20,06,52,25.70
2010,05,20,06,53,19.30
2010,05,20,06,54,32.20
2010,05,20,06,55,20.90
2010,05,20,06,56,32.20
2010,05,20,06,57,24.10
2010,05,20,06,58,17.70
2010,05,20,06,59,19.30
2010,05,20,07,00,19.30
2010,05,20,07,01,20.90
2010,05,20,07,02,29.00
2010,05,20,07,03,12.90
2010,05,20,07,04,14.50
2010,05,20,07,05,19.30
2010,05,20,07,06,30.60
2010,05,20,07,07,33.80
2010,05,20,07,08,12.90
2010,05,20,07,09,12.90
2010,05,20,07,10,25.70
2010,05,20,07,11,14.50
2010,05,20,07,12,22.50
2010,05,20,07,13,25.70
2010,05,20,07,14,14.50
2010,05,20,07,15,25.70
2010,05,20,07,16,33.80
2010,05,20,07,17,37.00
2010,05,20,07,18,35.40
2010,05,20,07,19,22.50
2010,05,20,07,20,25.70
2010,05,20,07,21,12.90
2010,05,20,07,22,20.90
2010,05,20,07,23,19.30
2010,05,20,07,24,22.50
2010,05,20,07,25,25.70
2010,05,20,07,26,32.20
2010,05,20,07,27,22.50
2010,05,20,07,28,24.10
2010,05,20,07,29,20.90
2010,05,20,07,30,20.90
2010,05,20,07,31,19.30
2010,05,20,07,32,14.50
2010,05,20,07,33,11.30
2010,05,20,07,34,33.80
2010,05,20,07,35,25.70
2010,05,20,07,36,17.70
2010,05,20,07,37,12.90
2010,05,20,07,38,19.30
2010,05,20,07,39,16.10
2010,05,20,07,40,12.90
2010,05,20,07,41,29.00
2010,05,20,07,42,20.90
2010,05,20,07,43,16.10
2010,05,20,07,44,24.10
2010,05,20,07,45,14.50
2010,05,20,07,46,14.50
2010,05,20,07,47,17.70
2010,05,20,07,48,16.10
2010,05,20,07,49,12.90
2010,05,20,07,50,19.30
2010,05,20,07,51,24.10
2010,05,20,07,52,17.70
2010,05,20,07,53,22.50
2010,05,20,07,54,17.70
2010,05,20,07,55,29.00
2010,05,20,07,56,20.90
2010,05,20,07,57,25.70
2010,05,20,07,58,12.90
2010,05,20,07,59,17.70
2010,05,20,08,00,20.90
2010,05,20,08,01,30.60
2010,05,20,08,02,29.00
2010,05,20,08,03,24.10
2010,05,20,08,04,17.70
2010,05,20,08,05,16.10
2010,05,20,08,06,16.10
2010,05,20,08,07,20.90
2010,05,20,08,08,22.50
2010,05,20,08,09,14.50
2010,05,20,08,10,33.80
2010,05,20,08,11,20.90
2010,05,20,08,12,16.10
2010,05,20,08,13,22.50
2010,05,20,08,14,35.40
2010,05,20,08,15,14.50
2010,05,20,08,16,16.10
2010,05,20,08,17,40.20
2010,05,20,08,18,24.10
2010,05,20,08,19,29.00
2010,05,20,08,20,40.20
2010,05,20,08,21,29.00
2010,05,20,08,22,38.60
2010,05,20,08,23,25.70
2010,05,20,08,24,17.70
2010,05,20,08,25,20.90
2010,05,20,08,26,22.50
2010,05,20,08,27,24.10
2010,05,20,08,28,11.30
2010,05,20,08,29,43.50
2010,05,20,08,30,35.40
2010,05,20,08,31,14.50
2010,05,20,08,32,19.30
2010,05,20,08,33,20.90
2010,05,20,08,34,22.50
2010,05,20,08,35,14.50
2010,05,20,08,36,22.50
2010,05,20,08,37,20.90
2010,05,20,08,38,16.10
2010,05,20,08,39,19.30
2010,05,20,08,40,19.30
2010,05,20,08,41,30.60
2010,05,20,08,42,14.50
2010,05,20,08,43,17.70
2010,05,20,08,44,24.10
2010,05,20,08,45,32.20
2010,05,20,08,46,25.70
2010,05,20,08,47,22.50
2010,05,20,08,48,20.90
2010,05,20,08,49,22.50
2010,05,20,08,50,12.90
2010,05,20,08,51,16.10
2010,05,20,08,52,16.10
2010,05,20,08,53,17.70
2010,05,20,08,54,8.00
2010,05,20,08,55,16.10
2010,05,20,08,56,32.20
2010,05,20,08,57,30.60
2010,05,20,08,58,29.00
2010,05,20,08,59,25.70
2010,05,20,09,00,29.00
2010,05,20,09,01,29.00
2010,05,20,09,02,25.70
2010,05,20,09,03,33.80
2010,05,20,09,04,29.00
2010,05,20,09,05,12.90
2010,05,20,09,06,30.60
2010,05,20,09,07,16.10
2010,05,20,09,08,29.00
2010,05,20,09,09,19.30
2010,05,20,09,10,19.30
2010,05,20,09,11,24.10
2010,05,20,09,12,17.70
2010,05,20,09,13,25.70
2010,05,20,09,14,29.00
2010,05,20,09,16,22.50
2010,05,20,09,17,17.70
2010,05,20,09,18,19.30
2010,05,20,09,19,35.40
2010,05,20,09,20,22.50
2010,05,20,09,23,16.10
2010,05,20,09,24,20.90
2010,05,20,09,25,25.70
2010,05,20,11,59,16.10
2010,05,20,12,00,9.70
2010,05,20,12,01,9.70
2010,05,20,12,02,6.40
2010,05,20,12,03,3.20
2010,05,20,12,04,9.70
2010,05,20,12,05,3.20
2010,05,20,12,06,6.40
2010,05,20,12,07,1.60
2010,05,20,12,08,6.40
2010,05,20,12,09,1.60
2010,05,20,12,10,3.20
2010,05,20,12,11,6.40
2010,05,20,12,12,3.20
2010,05,20,12,13,12.90
2010,05,20,12,14,8.00
2010,05,20,12,15,12.90
2010,05,20,12,16,6.40
2010,05,20,12,17,6.40
2010,05,20,12,18,6.40
2010,05,20,12,19,6.40
2010,05,20,12,20,9.70
2010,05,20,12,21,4.80
2010,05,20,12,22,9.70
2010,05,20,23,10,3.20
2010,05,20,23,11,3.20
2010,05,20,23,12,1.60
2010,05,20,23,13,0.00
2010,05,20,23,14,3.20
2010,05,20,23,15,1.60
2010,05,20,23,16,1.60
2010,05,20,23,17,0.00
2010,05,20,23,18,0.00
2010,05,20,23,19,0.00
2010,05,20,23,20,0.00
2010,05,20,23,21,1.60
2010,05,20,23,22,0.00
2010,05,20,23,23,0.00
2010,05,20,23,24,0.00
2010,05,20,23,25,0.00
2010,05,20,23,26,0.00
2010,05,20,23,27,1.60
2010,05,20,23,28,4.80
2010,05,20,23,29,6.40
2010,05,20,23,30,1.60
2010,05,20,23,31,0.00
2010,05,20,23,32,0.00
2010,05,20,23,33,0.00
2010,05,20,23,34,1.60
2010,05,20,23,35,1.60
2010,05,20,23,36,1.60
2010,05,20,23,37,0.00
2010,05,20,23,38,3.20
2010,05,20,23,39,3.20
2010,05,20,23,40,1.60
2010,05,20,23,41,1.60
2010,05,20,23,42,0.00
2010,05,20,23,43,1.60
2010,05,20,23,44,0.00
2010,05,20,23,45,0.00
2010,05,20,23,46,0.00
2010,05,20,23,47,0.00
2010,05,20,23,48,0.00
2010,05,20,23,49,0.00
2010,05,20,23,50,0.00
2010,05,20,23,51,0.00
2010,05,20,23,52,0.00
2010,05,20,23,53,0.00
2010,05,20,23,54,0.00
2010,05,20,23,55,0.00
2010,05,20,23,56,0.00
2010,05,20,23,57,0.00
2010,05,20,23,58,0.00
2010,05,20,23,59,0.00
